Time,TemperatureF,DewpointF,PressureIn,WindDirection,WindDirectionDegrees,WindSpeedMPH,WindSpeedGustMPH,Humidity,HourlyPrecipIn,Conditions,Clouds,dailyrainin,SoftwareType,DateUTC
2013-03-12 00:00:00,57.8,54.3,29.92,SSE,161,1.0,10.0,88,0.04,,---,0.05,VWS V14.01,2013-03-12 04:00:00,
2013-03-12 00:02:00,57.8,54.3,29.92,SSE,163,2.0,3.0,88,0.03,,---,0.00,VWS V14.01,2013-03-12 04:02:00,
2013-03-12 00:04:00,57.8,54.3,29.92,South,180,3.0,5.0,88,0.03,,---,0.00,VWS V14.01,2013-03-12 04:04:00,
2013-03-12 00:09:00,57.9,54.4,29.93,South,188,4.0,6.0,88,0.03,,---,0.00,VWS V14.01,2013-03-12 04:09:00,
2013-03-12 00:14:00,57.8,54.6,29.93,South,177,3.0,7.0,89,0.03,,---,0.00,VWS V14.01,2013-03-12 04:14:00,
2013-03-12 00:19:00,57.8,54.6,29.93,SSE,164,4.0,7.0,89,0.03,,---,0.01,VWS V14.01,2013-03-12 04:19:00,
2013-03-12 00:24:00,57.9,54.7,29.93,South,175,4.0,7.0,89,0.03,,---,0.01,VWS V14.01,2013-03-12 04:24:00,
2013-03-12 00:29:00,57.8,54.6,29.93,SSE,151,4.0,8.0,89,0.03,,---,0.01,VWS V14.01,2013-03-12 04:29:00,
2013-03-12 00:35:00,57.8,54.9,29.93,South,173,3.0,9.0,90,0.03,,---,0.02,VWS V14.01,2013-03-12 04:35:00,
2013-03-12 00:40:00,57.7,54.8,29.92,SSE,160,4.0,9.0,90,0.04,,---,0.03,VWS V14.01,2013-03-12 04:40:00,
2013-03-12 00:45:00,57.6,55.0,29.92,South,188,6.0,12.0,91,0.05,,---,0.04,VWS V14.01,2013-03-12 04:45:00,
2013-03-12 00:50:00,57.5,54.9,29.91,South,190,3.0,9.0,91,0.04,,---,0.04,VWS V14.01,2013-03-12 04:50:00,
2013-03-12 00:55:00,57.5,55.2,29.91,South,186,5.0,10.0,92,0.04,,---,0.04,VWS V14.01,2013-03-12 04:55:00,
2013-03-12 01:01:00,57.5,55.2,29.91,South,182,3.0,10.0,92,0.05,,---,0.05,VWS V14.01,2013-03-12 05:01:00,
2013-03-12 01:06:00,57.4,55.1,29.91,South,185,5.0,9.0,92,0.05,,---,0.05,VWS V14.01,2013-03-12 05:06:00,
2013-03-12 01:11:00,57.4,55.1,29.91,SE,144,3.0,11.0,92,0.05,,---,0.05,VWS V14.01,2013-03-12 05:11:00,
2013-03-12 01:16:00,57.3,55.0,29.90,South,178,2.0,4.0,92,0.05,,---,0.06,VWS V14.01,2013-03-12 05:16:00,
2013-03-12 01:21:00,57.3,55.3,29.90,SSE,152,6.0,8.0,93,0.05,,---,0.06,VWS V14.01,2013-03-12 05:21:00,
2013-03-12 01:27:00,57.3,55.3,29.89,SE,142,3.0,8.0,93,0.06,,---,0.07,VWS V14.01,2013-03-12 05:27:00,
2013-03-12 01:32:00,57.3,55.3,29.89,South,185,7.0,7.0,93,0.06,,---,0.07,VWS V14.01,2013-03-12 05:32:00,
2013-03-12 01:37:00,57.3,55.3,29.89,SE,146,5.0,9.0,93,0.06,,---,0.07,VWS V14.01,2013-03-12 05:37:00,
2013-03-12 01:42:00,57.3,55.3,29.88,SSE,160,8.0,9.0,93,0.07,,---,0.08,VWS V14.01,2013-03-12 05:42:00,
2013-03-12 01:47:00,57.4,55.4,29.88,SSE,161,4.0,7.0,93,0.05,,---,0.09,VWS V14.01,2013-03-12 05:47:00,
2013-03-12 01:53:00,57.4,55.7,29.88,South,170,6.0,9.0,94,0.05,,---,0.09,VWS V14.01,2013-03-12 05:53:00,
2013-03-12 01:58:00,57.4,55.7,29.88,SE,144,5.0,12.0,94,0.06,,---,0.10,VWS V14.01,2013-03-12 05:58:00,
2013-03-12 02:03:00,57.4,55.7,29.88,South,169,4.0,9.0,94,0.06,,---,0.11,VWS V14.01,2013-03-12 06:03:00,
2013-03-12 02:09:00,57.5,55.8,29.87,SSE,148,4.0,10.0,94,0.07,,---,0.12,VWS V14.01,2013-03-12 06:09:00,
2013-03-12 02:14:00,57.6,55.9,29.87,SSE,166,9.0,10.0,94,0.07,,---,0.12,VWS V14.01,2013-03-12 06:14:00,
2013-03-12 02:19:00,57.7,56.0,29.88,SE,136,8.0,15.0,94,0.07,,---,0.13,VWS V14.01,2013-03-12 06:19:00,
2013-03-12 02:24:00,57.8,56.1,29.87,SE,142,4.0,15.0,94,0.08,,---,0.14,VWS V14.01,2013-03-12 06:24:00,
2013-03-12 02:29:00,57.8,56.1,29.87,SSE,160,7.0,15.0,94,0.09,,---,0.15,VWS V14.01,2013-03-12 06:29:00,
2013-03-12 02:34:00,57.8,56.1,29.87,SSE,168,4.0,9.0,94,0.09,,---,0.16,VWS V14.01,2013-03-12 06:34:00,
2013-03-12 02:39:00,57.9,56.2,29.87,SSE,157,6.0,11.0,94,0.10,,---,0.17,VWS V14.01,2013-03-12 06:39:00,
2013-03-12 02:44:00,57.9,56.2,29.87,SSE,161,7.0,11.0,94,0.11,,---,0.18,VWS V14.01,2013-03-12 06:44:00,
2013-03-12 02:49:00,57.9,56.2,29.86,SSE,157,6.0,10.0,94,0.10,,---,0.19,VWS V14.01,2013-03-12 06:49:00,
2013-03-12 02:54:00,57.9,56.2,29.85,South,169,5.0,11.0,94,0.11,,---,0.20,VWS V14.01,2013-03-12 06:54:00,
2013-03-12 03:00:00,58.0,56.3,29.85,South,174,4.0,11.0,94,0.11,,---,0.20,VWS V14.01,2013-03-12 07:00:00,
2013-03-12 03:05:00,58.0,56.3,29.85,South,179,5.0,10.0,94,0.10,,---,0.21,VWS V14.01,2013-03-12 07:05:00,
2013-03-12 03:10:00,58.0,56.6,29.85,SSE,162,3.0,10.0,95,0.11,,---,0.22,VWS V14.01,2013-03-12 07:10:00,
2013-03-12 03:16:00,58.1,56.7,29.86,South,182,4.0,10.0,95,0.13,,---,0.24,VWS V14.01,2013-03-12 07:16:00,
2013-03-12 03:21:00,58.2,56.8,29.85,South,186,7.0,7.0,95,0.12,,---,0.25,VWS V14.01,2013-03-12 07:21:00,
2013-03-12 03:27:00,58.2,56.8,29.85,South,175,2.0,8.0,95,0.14,,---,0.27,VWS V14.01,2013-03-12 07:27:00,
2013-03-12 03:32:00,58.3,56.9,29.85,South,177,3.0,6.0,95,0.12,,---,0.28,VWS V14.01,2013-03-12 07:32:00,
2013-03-12 03:37:00,58.3,56.9,29.84,SSE,162,4.0,6.0,95,0.15,,---,0.31,VWS V14.01,2013-03-12 07:37:00,
2013-03-12 03:42:00,58.4,57.0,29.84,South,183,3.0,6.0,95,0.17,,---,0.33,VWS V14.01,2013-03-12 07:42:00,
2013-03-12 03:47:00,58.4,57.0,29.84,South,171,1.0,5.0,95,0.18,,---,0.36,VWS V14.01,2013-03-12 07:47:00,
2013-03-12 03:53:00,58.4,57.0,29.85,South,170,2.0,6.0,95,0.22,,---,0.40,VWS V14.01,2013-03-12 07:53:00,
2013-03-12 03:58:00,58.5,57.1,29.84,South,172,1.0,6.0,95,0.28,,---,0.46,VWS V14.01,2013-03-12 07:58:00,
2013-03-12 04:03:00,58.5,57.1,29.84,SSE,156,1.0,4.0,95,0.27,,---,0.48,VWS V14.01,2013-03-12 08:03:00,
2013-03-12 04:08:00,58.5,57.1,29.83,South,175,2.0,6.0,95,0.29,,---,0.50,VWS V14.01,2013-03-12 08:08:00,
2013-03-12 04:13:00,58.6,57.2,29.83,South,173,1.0,7.0,95,0.29,,---,0.50,VWS V14.01,2013-03-12 08:13:00,
2013-03-12 04:19:00,58.6,57.2,29.83,South,186,3.0,7.0,95,0.27,,---,0.51,VWS V14.01,2013-03-12 08:19:00,
2013-03-12 04:24:00,58.7,57.3,29.82,South,189,7.0,11.0,95,0.28,,---,0.52,VWS V14.01,2013-03-12 08:24:00,
2013-03-12 04:29:00,58.9,57.5,29.82,South,178,8.0,12.0,95,0.29,,---,0.53,VWS V14.01,2013-03-12 08:29:00,
2013-03-12 04:34:00,59.0,57.6,29.81,SSE,162,9.0,12.0,95,0.26,,---,0.53,VWS V14.01,2013-03-12 08:34:00,
2013-03-12 04:40:00,59.1,57.7,29.81,SSW,193,13.0,13.0,95,0.26,,---,0.53,VWS V14.01,2013-03-12 08:40:00,
2013-03-12 04:45:00,59.2,57.8,29.82,South,175,10.0,13.0,95,0.27,,---,0.54,VWS V14.01,2013-03-12 08:45:00,
2013-03-12 04:50:00,59.2,57.5,29.81,SE,129,5.0,12.0,94,0.19,,---,0.54,VWS V14.01,2013-03-12 08:50:00,
2013-03-12 04:55:00,59.3,57.6,29.81,SSE,152,9.0,15.0,94,0.19,,---,0.54,VWS V14.01,2013-03-12 08:55:00,
2013-03-12 05:01:00,59.3,57.6,29.81,SSW,195,4.0,15.0,94,0.19,,---,0.54,VWS V14.01,2013-03-12 09:01:00,
2013-03-12 05:06:00,59.3,57.6,29.81,SE,133,4.0,11.0,94,0.06,,---,0.54,VWS V14.01,2013-03-12 09:06:00,
2013-03-12 05:11:00,59.3,57.6,29.81,South,185,4.0,11.0,94,0.07,,---,0.55,VWS V14.01,2013-03-12 09:11:00,
2013-03-12 05:16:00,59.3,57.6,29.81,SSE,151,6.0,11.0,94,0.05,,---,0.56,VWS V14.01,2013-03-12 09:16:00,
2013-03-12 05:22:00,59.3,57.6,29.81,SW,222,10.0,12.0,94,0.05,,---,0.56,VWS V14.01,2013-03-12 09:22:00,
2013-03-12 05:27:00,59.3,57.6,29.81,SE,144,4.0,12.0,94,0.06,,---,0.57,VWS V14.01,2013-03-12 09:27:00,
2013-03-12 05:32:00,59.3,57.6,29.82,South,190,4.0,8.0,94,0.04,,---,0.57,VWS V14.01,2013-03-12 09:32:00,
2013-03-12 05:37:00,59.3,57.6,29.81,SSE,163,3.0,13.0,94,0.04,,---,0.57,VWS V14.01,2013-03-12 09:37:00,
2013-03-12 05:43:00,59.3,57.6,29.82,SW,221,10.0,13.0,94,0.04,,---,0.57,VWS V14.01,2013-03-12 09:43:00,
2013-03-12 05:48:00,59.2,57.5,29.81,SSE,167,7.0,10.0,94,0.04,,---,0.58,VWS V14.01,2013-03-12 09:48:00,
2013-03-12 05:53:00,59.2,57.5,29.81,SSE,158,10.0,15.0,94,0.05,,---,0.59,VWS V14.01,2013-03-12 09:53:00,
2013-03-12 05:58:00,59.1,57.1,29.81,SW,226,8.0,15.0,93,0.06,,---,0.60,VWS V14.01,2013-03-12 09:58:00,
2013-03-12 06:03:00,59.1,57.1,29.81,SW,217,5.0,6.0,93,0.08,,---,0.62,VWS V14.01,2013-03-12 10:03:00,
2013-03-12 06:08:00,59.1,57.1,29.81,SW,218,4.0,9.0,93,0.09,,---,0.63,VWS V14.01,2013-03-12 10:08:00,
2013-03-12 06:14:00,59.0,57.0,29.81,SSE,167,4.0,11.0,93,0.11,,---,0.65,VWS V14.01,2013-03-12 10:14:00,
2013-03-12 06:19:00,59.0,57.0,29.81,South,180,3.0,8.0,93,0.10,,---,0.66,VWS V14.01,2013-03-12 10:19:00,
2013-03-12 06:24:00,59.0,57.3,29.81,South,186,4.0,11.0,94,0.11,,---,0.67,VWS V14.01,2013-03-12 10:24:00,
2013-03-12 06:30:00,59.0,57.3,29.82,SSE,150,4.0,12.0,94,0.12,,---,0.68,VWS V14.01,2013-03-12 10:30:00,
2013-03-12 06:35:00,59.0,57.3,29.82,SSW,201,3.0,9.0,94,0.12,,---,0.69,VWS V14.01,2013-03-12 10:35:00,
2013-03-12 06:40:00,59.0,57.3,29.81,SSE,155,5.0,13.0,94,0.13,,---,0.70,VWS V14.01,2013-03-12 10:40:00,
2013-03-12 06:45:00,59.0,57.3,29.82,SW,232,4.0,13.0,94,0.16,,---,0.73,VWS V14.01,2013-03-12 10:45:00,
2013-03-12 06:51:00,59.0,57.3,29.82,SW,216,3.0,10.0,94,0.16,,---,0.74,VWS V14.01,2013-03-12 10:51:00,
2013-03-12 06:56:00,58.9,57.2,29.82,SSW,197,6.0,10.0,94,0.19,,---,0.77,VWS V14.01,2013-03-12 10:56:00,
2013-03-12 07:01:00,58.9,57.2,29.82,SE,139,3.0,5.0,94,0.16,,---,0.77,VWS V14.01,2013-03-12 11:01:00,
2013-03-12 07:07:00,58.9,57.2,29.82,ESE,105,4.0,11.0,94,0.18,,---,0.79,VWS V14.01,2013-03-12 11:07:00,
2013-03-12 07:12:00,58.9,57.2,29.82,WSW,251,7.0,11.0,94,0.18,,---,0.79,VWS V14.01,2013-03-12 11:12:00,
2013-03-12 07:17:00,58.9,57.2,29.83,SE,142,2.0,12.0,94,0.14,,---,0.79,VWS V14.01,2013-03-12 11:17:00,
2013-03-12 07:22:00,59.0,57.3,29.83,South,178,3.0,12.0,94,0.16,,---,0.81,VWS V14.01,2013-03-12 11:22:00,
2013-03-12 07:28:00,59.0,57.3,29.83,South,181,2.0,12.0,94,0.17,,---,0.82,VWS V14.01,2013-03-12 11:28:00,
2013-03-12 07:33:00,58.9,57.2,29.83,South,190,3.0,7.0,94,0.17,,---,0.85,VWS V14.01,2013-03-12 11:33:00,
2013-03-12 07:38:00,58.9,57.2,29.83,SSW,201,5.0,10.0,94,0.17,,---,0.85,VWS V14.01,2013-03-12 11:38:00,
2013-03-12 07:43:00,58.9,57.2,29.83,SSW,200,2.0,11.0,94,0.17,,---,0.85,VWS V14.01,2013-03-12 11:43:00,
2013-03-12 07:48:00,58.9,57.2,29.83,SSE,153,2.0,11.0,94,0.12,,---,0.85,VWS V14.01,2013-03-12 11:48:00,
2013-03-12 07:54:00,58.9,57.2,29.83,SSE,166,5.0,11.0,94,0.12,,---,0.85,VWS V14.01,2013-03-12 11:54:00,
2013-03-12 07:59:00,58.9,57.2,29.83,SSE,162,9.0,11.0,94,0.12,,---,0.85,VWS V14.01,2013-03-12 11:59:00,
2013-03-12 08:04:00,59.0,57.3,29.83,SSW,202,7.0,13.0,94,0.08,,---,0.85,VWS V14.01,2013-03-12 12:04:00,
2013-03-12 08:09:00,59.0,57.3,29.83,SSW,198,1.0,13.0,94,0.09,,---,0.86,VWS V14.01,2013-03-12 12:09:00,
2013-03-12 08:15:00,59.0,57.3,29.84,SE,146,0.0,13.0,94,0.09,,---,0.86,VWS V14.01,2013-03-12 12:15:00,
2013-03-12 08:20:00,58.9,57.2,29.84,South,186,7.0,9.0,94,0.07,,---,0.86,VWS V14.01,2013-03-12 12:20:00,
2013-03-12 08:25:00,58.9,57.2,29.84,ESE,110,1.0,9.0,94,0.07,,---,0.86,VWS V14.01,2013-03-12 12:25:00,
2013-03-12 08:30:00,58.9,57.5,29.84,South,178,3.0,9.0,95,0.07,,---,0.86,VWS V14.01,2013-03-12 12:30:00,
2013-03-12 08:36:00,58.9,57.5,29.84,SE,142,5.0,6.0,95,0.03,,---,0.86,VWS V14.01,2013-03-12 12:36:00,
2013-03-12 08:42:00,58.9,57.5,29.84,WSW,254,2.0,11.0,95,0.03,,---,0.86,VWS V14.01,2013-03-12 12:42:00,
2013-03-12 08:47:00,58.9,57.5,29.84,SSE,158,1.0,4.0,95,0.01,,---,0.86,VWS V14.01,2013-03-12 12:47:00,
2013-03-12 08:52:00,58.9,57.5,29.84,SSW,192,3.0,9.0,95,0.01,,---,0.86,VWS V14.01,2013-03-12 12:52:00,
2013-03-12 08:58:00,59.0,57.6,29.84,SW,217,7.0,10.0,95,0.01,,---,0.86,VWS V14.01,2013-03-12 12:58:00,
2013-03-12 09:03:00,59.0,57.6,29.85,SSW,207,3.0,8.0,95,0.01,,---,0.86,VWS V14.01,2013-03-12 13:03:00,
2013-03-12 09:08:00,59.1,57.7,29.84,SSE,168,4.0,10.0,95,0.01,,---,0.86,VWS V14.01,2013-03-12 13:08:00,
2013-03-12 09:14:00,59.1,57.7,29.85,South,185,3.0,10.0,95,0.01,,---,0.86,VWS V14.01,2013-03-12 13:14:00,
2013-03-12 09:19:00,59.2,57.8,29.85,NNW,334,0.0,6.0,95,0.00,,---,0.86,VWS V14.01,2013-03-12 13:19:00,
2013-03-12 09:24:00,59.3,57.9,29.85,South,188,1.0,6.0,95,0.00,,---,0.86,VWS V14.01,2013-03-12 13:24:00,
2013-03-12 09:29:00,59.3,57.9,29.85,SW,224,2.0,7.0,95,0.00,,---,0.86,VWS V14.01,2013-03-12 13:29:00,
2013-03-12 09:34:00,59.4,58.0,29.85,SSW,197,2.0,5.0,95,0.00,,---,0.86,VWS V14.01,2013-03-12 13:34:00,
2013-03-12 09:40:00,59.5,58.1,29.85,SSW,213,2.0,6.0,95,0.00,,---,0.86,VWS V14.01,2013-03-12 13:40:00,
2013-03-12 09:45:00,59.6,58.2,29.85,West,260,6.0,7.0,95,0.00,,---,0.86,VWS V14.01,2013-03-12 13:45:00,
2013-03-12 09:50:00,59.6,58.2,29.85,SSE,150,2.0,9.0,95,0.00,,---,0.86,VWS V14.01,2013-03-12 13:50:00,
2013-03-12 09:56:00,59.8,58.4,29.85,South,183,3.0,9.0,95,0.00,,---,0.86,VWS V14.01,2013-03-12 13:56:00,
2013-03-12 10:02:00,59.9,58.2,29.85,SSW,202,4.0,5.0,94,0.00,,---,0.86,VWS V14.01,2013-03-12 14:02:00,
2013-03-12 10:07:00,60.0,58.3,29.85,SW,219,1.0,7.0,94,0.00,,---,0.86,VWS V14.01,2013-03-12 14:07:00,
2013-03-12 10:12:00,60.1,58.4,29.85,SW,218,4.0,7.0,94,0.00,,---,0.86,VWS V14.01,2013-03-12 14:12:00,
2013-03-12 10:17:00,60.3,58.9,29.85,WNW,287,2.0,9.0,95,0.00,,---,0.86,VWS V14.01,2013-03-12 14:17:00,
2013-03-12 10:22:00,60.5,58.8,29.86,WSW,248,0.0,9.0,94,0.00,,---,0.86,VWS V14.01,2013-03-12 14:22:00,
2013-03-12 10:28:00,60.6,58.9,29.86,NW,322,1.0,9.0,94,0.00,,---,0.86,VWS V14.01,2013-03-12 14:28:00,
2013-03-12 10:33:00,60.6,58.6,29.86,WSW,239,2.0,7.0,93,0.00,,---,0.86,VWS V14.01,2013-03-12 14:33:00,
2013-03-12 10:38:00,60.6,58.6,29.86,WNW,290,0.0,7.0,93,0.00,,---,0.86,VWS V14.01,2013-03-12 14:38:00,
2013-03-12 10:43:00,60.7,58.7,29.86,WSW,254,2.0,7.0,93,0.00,,---,0.86,VWS V14.01,2013-03-12 14:43:00,
2013-03-12 10:49:00,60.8,58.8,29.87,NW,326,2.0,6.0,93,0.00,,---,0.86,VWS V14.01,2013-03-12 14:49:00,
2013-03-12 10:54:00,60.9,58.9,29.87,West,269,5.0,6.0,93,0.00,,---,0.86,VWS V14.01,2013-03-12 14:54:00,
2013-03-12 10:59:00,61.0,59.0,29.87,West,279,5.0,10.0,93,0.00,,---,0.86,VWS V14.01,2013-03-12 14:59:00,
2013-03-12 11:04:00,61.1,59.1,29.87,West,281,2.0,7.0,93,0.00,,---,0.86,VWS V14.01,2013-03-12 15:04:00,
2013-03-12 11:09:00,61.3,59.3,29.87,WSW,242,4.0,8.0,93,0.00,,---,0.86,VWS V14.01,2013-03-12 15:09:00,
2013-03-12 11:15:00,62.3,60.0,29.87,West,278,1.0,8.0,92,0.00,,---,0.86,VWS V14.01,2013-03-12 15:15:00,
2013-03-12 11:20:00,63.0,60.3,29.87,West,265,1.0,8.0,91,0.00,,---,0.86,VWS V14.01,2013-03-12 15:20:00,
2013-03-12 11:25:00,62.3,59.0,29.87,WSW,248,9.0,10.0,89,0.00,,---,0.86,VWS V14.01,2013-03-12 15:25:00,
2013-03-12 11:30:00,62.1,58.5,29.87,West,269,7.0,10.0,88,0.00,,---,0.86,VWS V14.01,2013-03-12 15:30:00,
2013-03-12 11:36:00,62.5,59.5,29.86,West,265,3.0,8.0,90,0.00,,---,0.86,VWS V14.01,2013-03-12 15:36:00,
2013-03-12 11:41:00,64.0,60.7,29.87,NNW,331,3.0,9.0,89,0.00,,---,0.86,VWS V14.01,2013-03-12 15:41:00,
2013-03-12 11:46:00,64.1,58.8,29.87,WNW,295,3.0,7.0,83,0.00,,---,0.86,VWS V14.01,2013-03-12 15:46:00,
2013-03-12 11:51:00,64.5,59.9,29.87,West,281,5.0,7.0,85,0.00,,---,0.86,VWS V14.01,2013-03-12 15:51:00,
2013-03-12 11:56:00,64.5,58.2,29.87,WNW,296,8.0,11.0,80,0.00,,---,0.86,VWS V14.01,2013-03-12 15:56:00,
2013-03-12 12:02:00,63.2,56.9,29.87,NW,321,5.0,9.0,80,0.00,,---,0.86,VWS V14.01,2013-03-12 16:02:00,
2013-03-12 12:07:00,63.7,57.8,29.87,WNW,285,3.0,11.0,81,0.00,,---,0.86,VWS V14.01,2013-03-12 16:07:00,
2013-03-12 12:12:00,65.1,58.1,29.87,WSW,251,2.0,11.0,78,0.00,,---,0.86,VWS V14.01,2013-03-12 16:12:00,
2013-03-12 12:17:00,66.2,57.7,29.87,South,176,4.0,8.0,74,0.00,,---,0.86,VWS V14.01,2013-03-12 16:17:00,
2013-03-12 12:23:00,67.4,59.2,29.87,West,261,5.0,8.0,75,0.00,,---,0.86,VWS V14.01,2013-03-12 16:23:00,
2013-03-12 12:28:00,66.2,56.9,29.87,WNW,294,2.0,8.0,72,0.00,,---,0.86,VWS V14.01,2013-03-12 16:28:00,
2013-03-12 12:33:00,65.5,55.5,29.87,West,261,5.0,12.0,70,0.00,,---,0.86,VWS V14.01,2013-03-12 16:33:00,
2013-03-12 12:38:00,66.3,57.8,29.87,WSW,240,2.0,12.0,74,0.00,,---,0.86,VWS V14.01,2013-03-12 16:38:00,
2013-03-12 12:43:00,67.3,58.4,29.87,WNW,286,2.0,12.0,73,0.00,,---,0.86,VWS V14.01,2013-03-12 16:43:00,
2013-03-12 12:49:00,67.7,56.4,29.87,West,266,2.0,8.0,67,0.00,,---,0.86,VWS V14.01,2013-03-12 16:49:00,
2013-03-12 12:54:00,66.7,56.6,29.87,WNW,300,4.0,12.0,70,0.00,,---,0.86,VWS V14.01,2013-03-12 16:54:00,
2013-03-12 12:59:00,67.4,58.1,29.86,WNW,293,5.0,12.0,72,0.00,,---,0.86,VWS V14.01,2013-03-12 16:59:00,
2013-03-12 13:04:00,67.3,57.2,29.86,West,261,2.0,11.0,70,0.00,,---,0.86,VWS V14.01,2013-03-12 17:04:00,
2013-03-12 13:09:00,67.8,57.7,29.86,West,266,2.0,11.0,70,0.00,,---,0.86,VWS V14.01,2013-03-12 17:09:00,
2013-03-12 13:15:00,68.2,58.5,29.86,WNW,298,4.0,11.0,71,0.00,,---,0.86,VWS V14.01,2013-03-12 17:15:00,
2013-03-12 13:20:00,68.6,57.6,29.86,West,276,2.0,10.0,68,0.00,,---,0.86,VWS V14.01,2013-03-12 17:20:00,
2013-03-12 13:25:00,69.4,58.4,29.86,NW,314,3.0,10.0,68,0.00,,---,0.86,VWS V14.01,2013-03-12 17:25:00,
2013-03-12 13:30:00,68.3,57.8,29.86,WNW,300,3.0,10.0,69,0.00,,---,0.86,VWS V14.01,2013-03-12 17:30:00,
2013-03-12 13:36:00,66.1,56.4,29.86,WNW,297,2.0,7.0,71,0.00,,---,0.86,VWS V14.01,2013-03-12 17:36:00,
2013-03-12 13:41:00,66.1,57.6,29.85,WNW,298,3.0,7.0,74,0.00,,---,0.86,VWS V14.01,2013-03-12 17:41:00,
2013-03-12 13:46:00,67.5,57.8,29.85,WNW,284,1.0,2.0,71,0.00,,---,0.86,VWS V14.01,2013-03-12 17:46:00,
2013-03-12 13:52:00,69.2,57.4,29.84,NW,320,4.0,7.0,66,0.00,,---,0.86,VWS V14.01,2013-03-12 17:52:00,
2013-03-12 13:57:00,69.4,57.6,29.84,NNW,342,1.0,8.0,66,0.00,,---,0.86,VWS V14.01,2013-03-12 17:57:00,
2013-03-12 14:03:00,70.0,56.0,29.84,SSW,196,0.0,4.0,61,0.00,,---,0.86,VWS V14.01,2013-03-12 18:03:00,
2013-03-12 14:08:00,69.4,56.7,29.84,WSW,238,1.0,5.0,64,0.00,,---,0.86,VWS V14.01,2013-03-12 18:08:00,
2013-03-12 14:13:00,70.2,57.5,29.84,North,9,0.0,6.0,64,0.00,,---,0.86,VWS V14.01,2013-03-12 18:13:00,
2013-03-12 14:19:00,70.3,54.4,29.84,WNW,303,8.0,8.0,57,0.00,,---,0.86,VWS V14.01,2013-03-12 18:19:00,
2013-03-12 14:24:00,70.5,53.6,29.84,West,274,4.0,10.0,55,0.00,,---,0.86,VWS V14.01,2013-03-12 18:24:00,
2013-03-12 14:29:00,70.8,54.8,29.84,WNW,294,3.0,10.0,57,0.00,,---,0.86,VWS V14.01,2013-03-12 18:29:00,
2013-03-12 14:34:00,70.5,53.1,29.84,WNW,292,0.0,10.0,54,0.00,,---,0.86,VWS V14.01,2013-03-12 18:34:00,
2013-03-12 14:39:00,70.3,52.4,29.84,NW,316,5.0,10.0,53,0.00,,---,0.86,VWS V14.01,2013-03-12 18:39:00,
2013-03-12 14:45:00,70.4,51.4,29.84,NW,325,4.0,10.0,51,0.00,,---,0.86,VWS V14.01,2013-03-12 18:45:00,
2013-03-12 14:50:00,70.4,50.9,29.84,NW,316,1.0,9.0,50,0.00,,---,0.86,VWS V14.01,2013-03-12 18:50:00,
2013-03-12 14:55:00,70.6,51.6,29.85,West,271,13.0,13.0,51,0.00,,---,0.86,VWS V14.01,2013-03-12 18:55:00,
2013-03-12 15:00:00,70.4,50.9,29.84,NW,305,5.0,13.0,50,0.00,,---,0.86,VWS V14.01,2013-03-12 19:00:00,
2013-03-12 15:05:00,71.0,52.5,29.84,West,268,4.0,9.0,52,0.00,,---,0.86,VWS V14.01,2013-03-12 19:05:00,
2013-03-12 15:11:00,71.9,54.4,29.84,NW,311,3.0,9.0,54,0.00,,---,0.86,VWS V14.01,2013-03-12 19:11:00,
2013-03-12 15:17:00,71.2,51.1,29.84,WNW,284,4.0,9.0,49,0.00,,---,0.86,VWS V14.01,2013-03-12 19:17:00,
2013-03-12 15:22:00,70.8,52.3,29.84,West,273,4.0,9.0,52,0.00,,---,0.86,VWS V14.01,2013-03-12 19:22:00,
2013-03-12 15:28:00,70.6,52.7,29.84,WNW,290,4.0,13.0,53,0.00,,---,0.86,VWS V14.01,2013-03-12 19:28:00,
2013-03-12 15:33:00,70.5,52.0,29.84,WNW,300,7.0,10.0,52,0.00,,---,0.86,VWS V14.01,2013-03-12 19:33:00,
2013-03-12 15:38:00,70.7,51.7,29.84,WNW,292,8.0,13.0,51,0.00,,---,0.86,VWS V14.01,2013-03-12 19:38:00,
2013-03-12 15:43:00,70.6,51.1,29.84,NW,308,8.0,13.0,50,0.00,,---,0.86,VWS V14.01,2013-03-12 19:43:00,
2013-03-12 15:48:00,69.8,50.3,29.84,NNW,340,2.0,10.0,50,0.00,,---,0.86,VWS V14.01,2013-03-12 19:48:00,
2013-03-12 15:54:00,68.6,51.8,29.85,North,11,3.0,10.0,55,0.00,,---,0.86,VWS V14.01,2013-03-12 19:54:00,
2013-03-12 15:59:00,70.3,52.4,29.85,WNW,288,5.0,10.0,53,0.00,,---,0.86,VWS V14.01,2013-03-12 19:59:00,
2013-03-12 16:04:00,71.0,53.0,29.85,WNW,288,4.0,5.0,53,0.00,,---,0.86,VWS V14.01,2013-03-12 20:04:00,
2013-03-12 16:09:00,71.5,54.0,29.84,WNW,286,5.0,8.0,54,0.00,,---,0.86,VWS V14.01,2013-03-12 20:09:00,
2013-03-12 16:14:00,71.1,52.1,29.85,NW,323,4.0,10.0,51,0.00,,---,0.86,VWS V14.01,2013-03-12 20:14:00,
2013-03-12 16:19:00,70.7,51.2,29.84,NNW,330,5.0,11.0,50,0.00,,---,0.86,VWS V14.01,2013-03-12 20:19:00,
2013-03-12 16:24:00,70.5,51.5,29.84,NW,320,2.0,11.0,51,0.00,,---,0.86,VWS V14.01,2013-03-12 20:24:00,
2013-03-12 16:29:00,70.2,50.7,29.84,WNW,287,4.0,11.0,50,0.00,,---,0.86,VWS V14.01,2013-03-12 20:29:00,
2013-03-12 16:35:00,70.1,50.6,29.84,WNW,290,3.0,9.0,50,0.00,,---,0.86,VWS V14.01,2013-03-12 20:35:00,
2013-03-12 16:40:00,69.2,51.4,29.84,NW,322,4.0,9.0,53,0.00,,---,0.86,VWS V14.01,2013-03-12 20:40:00,
2013-03-12 16:45:00,69.0,50.1,29.84,NW,315,5.0,9.0,51,0.00,,---,0.86,VWS V14.01,2013-03-12 20:45:00,
2013-03-12 16:51:00,68.7,49.9,29.84,NNE,23,3.0,8.0,51,0.00,,---,0.86,VWS V14.01,2013-03-12 20:51:00,
2013-03-12 16:56:00,69.5,50.1,29.84,NW,306,6.0,12.0,50,0.00,,---,0.86,VWS V14.01,2013-03-12 20:56:00,
2013-03-12 17:02:00,69.5,49.5,29.84,NNW,331,4.0,7.0,49,0.00,,---,0.86,VWS V14.01,2013-03-12 21:02:00,
2013-03-12 17:07:00,69.5,49.5,29.85,West,275,5.0,10.0,49,0.00,,---,0.86,VWS V14.01,2013-03-12 21:07:00,
2013-03-12 17:12:00,69.4,48.3,29.85,NW,319,1.0,11.0,47,0.00,,---,0.86,VWS V14.01,2013-03-12 21:12:00,
2013-03-12 17:18:00,69.5,47.8,29.85,WNW,301,5.0,10.0,46,0.00,,---,0.86,VWS V14.01,2013-03-12 21:18:00,
2013-03-12 17:23:00,69.4,49.4,29.85,NNW,327,6.0,10.0,49,0.00,,---,0.86,VWS V14.01,2013-03-12 21:23:00,
2013-03-12 17:28:00,69.4,48.9,29.85,WNW,284,7.0,10.0,48,0.00,,---,0.86,VWS V14.01,2013-03-12 21:28:00,
2013-03-12 17:33:00,69.4,49.4,29.85,WNW,294,4.0,6.0,49,0.00,,---,0.86,VWS V14.01,2013-03-12 21:33:00,
2013-03-12 17:38:00,69.2,49.2,29.86,NNW,340,8.0,12.0,49,0.00,,---,0.86,VWS V14.01,2013-03-12 21:38:00,
2013-03-12 17:44:00,68.8,47.8,29.86,North,360,7.0,12.0,47,0.00,,---,0.86,VWS V14.01,2013-03-12 21:44:00,
2013-03-12 17:49:00,68.4,46.8,29.86,NW,313,3.0,9.0,46,0.00,,---,0.86,VWS V14.01,2013-03-12 21:49:00,
2013-03-12 17:54:00,67.9,47.5,29.86,NNW,329,4.0,12.0,48,0.00,,---,0.86,VWS V14.01,2013-03-12 21:54:00,
2013-03-12 17:59:00,67.7,47.3,29.86,NW,318,5.0,12.0,48,0.00,,---,0.86,VWS V14.01,2013-03-12 21:59:00,
2013-03-12 18:05:00,67.7,46.2,29.86,NW,304,4.0,9.0,46,0.00,,---,0.86,VWS V14.01,2013-03-12 22:05:00,
2013-03-12 18:10:00,67.3,42.8,29.87,NW,319,7.0,11.0,41,0.00,,---,0.86,VWS V14.01,2013-03-12 22:10:00,
2013-03-12 18:15:00,66.7,41.6,29.87,NNW,348,7.0,12.0,40,0.00,,---,0.86,VWS V14.01,2013-03-12 22:15:00,
2013-03-12 18:21:00,66.3,41.9,29.87,NW,304,3.0,7.0,41,0.00,,---,0.86,VWS V14.01,2013-03-12 22:21:00,
2013-03-12 18:27:00,65.9,40.3,29.88,NNW,338,5.0,12.0,39,0.00,,---,0.86,VWS V14.01,2013-03-12 22:27:00,
2013-03-12 18:32:00,65.4,40.5,29.88,NNW,339,7.0,12.0,40,0.00,,---,0.86,VWS V14.01,2013-03-12 22:32:00,
2013-03-12 18:37:00,65.1,39.5,29.88,NNW,340,5.0,12.0,39,0.00,,---,0.86,VWS V14.01,2013-03-12 22:37:00,
2013-03-12 18:42:00,64.7,39.2,29.88,North,355,3.0,12.0,39,0.00,,---,0.86,VWS V14.01,2013-03-12 22:42:00,
2013-03-12 18:47:00,64.4,38.3,29.88,North,360,9.0,9.0,38,0.00,,---,0.86,VWS V14.01,2013-03-12 22:47:00,
2013-03-12 18:53:00,64.0,38.6,29.88,NNE,28,5.0,9.0,39,0.00,,---,0.86,VWS V14.01,2013-03-12 22:53:00,
2013-03-12 18:58:00,63.6,38.2,29.89,North,355,4.0,10.0,39,0.00,,---,0.86,VWS V14.01,2013-03-12 22:58:00,
2013-03-12 19:03:00,63.1,37.1,29.89,North,355,2.0,6.0,38,0.00,,---,0.86,VWS V14.01,2013-03-12 23:03:00,
2013-03-12 19:08:00,62.7,36.8,29.89,NNE,17,4.0,8.0,38,0.00,,---,0.86,VWS V14.01,2013-03-12 23:08:00,
2013-03-12 19:13:00,62.3,36.4,29.90,NW,322,4.0,8.0,38,0.00,,---,0.86,VWS V14.01,2013-03-12 23:13:00,
2013-03-12 19:19:00,61.7,36.5,29.90,NNW,344,2.0,8.0,39,0.00,,---,0.86,VWS V14.01,2013-03-12 23:19:00,
2013-03-12 19:24:00,61.1,35.3,29.91,NW,322,7.0,8.0,38,0.00,,---,0.86,VWS V14.01,2013-03-12 23:24:00,
2013-03-12 19:30:00,60.6,35.5,29.91,NNW,344,7.0,8.0,39,0.00,,---,0.86,VWS V14.01,2013-03-12 23:30:00,
2013-03-12 19:35:00,60.3,35.3,29.92,NNW,328,5.0,6.0,39,0.00,,---,0.86,VWS V14.01,2013-03-12 23:35:00,
2013-03-12 19:40:00,59.9,34.2,29.92,NW,310,3.0,6.0,38,0.00,,---,0.86,VWS V14.01,2013-03-12 23:40:00,
2013-03-12 19:45:00,59.6,34.6,29.93,NNW,339,4.0,9.0,39,0.00,,---,0.86,VWS V14.01,2013-03-12 23:45:00,
2013-03-12 19:50:00,59.2,34.3,29.93,NNW,344,2.0,5.0,39,0.00,,---,0.86,VWS V14.01,2013-03-12 23:50:00,
2013-03-12 19:55:00,58.7,34.5,29.93,NNW,338,3.0,5.0,40,0.00,,---,0.86,VWS V14.01,2013-03-12 23:55:00,
2013-03-12 20:01:00,58.2,34.6,29.93,NNW,342,4.0,5.0,41,0.00,,---,0.86,VWS V14.01,2013-03-13 00:01:00,
2013-03-12 20:06:00,57.8,34.3,29.93,NNW,340,3.0,5.0,41,0.00,,---,0.86,VWS V14.01,2013-03-13 00:06:00,
2013-03-12 20:12:00,57.6,34.1,29.94,NNW,332,3.0,5.0,41,0.00,,---,0.86,VWS V14.01,2013-03-13 00:12:00,
2013-03-12 20:17:00,57.6,34.7,29.94,NNW,333,5.0,7.0,42,0.00,,---,0.86,VWS V14.01,2013-03-13 00:17:00,
2013-03-12 20:22:00,57.8,34.3,29.94,North,351,2.0,7.0,41,0.00,,---,0.86,VWS V14.01,2013-03-13 00:22:00,
2013-03-12 20:27:00,57.6,34.7,29.94,North,360,6.0,7.0,42,0.00,,---,0.86,VWS V14.01,2013-03-13 00:27:00,
2013-03-12 20:32:00,57.5,34.6,29.95,NW,315,3.0,7.0,42,0.00,,---,0.86,VWS V14.01,2013-03-13 00:32:00,
2013-03-12 20:38:00,57.1,35.4,29.95,NW,321,4.0,9.0,44,0.00,,---,0.86,VWS V14.01,2013-03-13 00:38:00,
2013-03-12 20:43:00,57.0,34.8,29.95,NNE,24,0.0,10.0,43,0.00,,---,0.86,VWS V14.01,2013-03-13 00:43:00,
2013-03-12 20:48:00,56.8,34.6,29.95,NNW,332,3.0,7.0,43,0.00,,---,0.86,VWS V14.01,2013-03-13 00:48:00,
2013-03-12 20:54:00,56.7,33.9,29.95,NW,324,4.0,11.0,42,0.00,,---,0.86,VWS V14.01,2013-03-13 00:54:00,
2013-03-12 20:59:00,56.4,33.6,29.96,NNW,348,2.0,11.0,42,0.00,,---,0.86,VWS V14.01,2013-03-13 00:59:00,
2013-03-12 21:05:00,56.3,32.3,29.96,NNW,343,2.0,13.0,40,0.00,,---,0.86,VWS V14.01,2013-03-13 01:05:00,
2013-03-12 21:10:00,56.1,32.1,29.97,NNW,329,3.0,13.0,40,0.00,,---,0.86,VWS V14.01,2013-03-13 01:10:00,
2013-03-12 21:15:00,55.9,31.3,29.97,NNW,332,4.0,13.0,39,0.00,,---,0.86,VWS V14.01,2013-03-13 01:15:00,
2013-03-12 21:20:00,55.6,31.1,29.97,North,5,3.0,9.0,39,0.00,,---,0.86,VWS V14.01,2013-03-13 01:20:00,
2013-03-12 21:26:00,55.1,31.8,29.97,NNW,330,2.0,9.0,41,0.00,,---,0.86,VWS V14.01,2013-03-13 01:26:00,
2013-03-12 21:32:00,54.8,31.6,29.98,NNE,13,4.0,4.0,41,0.00,,---,0.86,VWS V14.01,2013-03-13 01:32:00,
2013-03-12 21:37:00,54.3,31.7,29.98,NNW,328,0.0,4.0,42,0.00,,---,0.86,VWS V14.01,2013-03-13 01:37:00,
2013-03-12 21:42:00,54.0,30.9,29.98,North,351,4.0,8.0,41,0.00,,---,0.86,VWS V14.01,2013-03-13 01:42:00,
2013-03-12 21:48:00,53.7,31.8,29.98,NNW,346,5.0,5.0,43,0.00,,---,0.86,VWS V14.01,2013-03-13 01:48:00,
2013-03-12 21:53:00,53.3,31.4,29.98,NW,313,4.0,6.0,43,0.00,,---,0.86,VWS V14.01,2013-03-13 01:53:00,
2013-03-12 21:58:00,53.2,31.3,29.99,NNW,343,0.0,6.0,43,0.00,,---,0.86,VWS V14.01,2013-03-13 01:58:00,
2013-03-12 22:03:00,52.6,31.3,29.99,NNW,344,3.0,4.0,44,0.00,,---,0.86,VWS V14.01,2013-03-13 02:03:00,
2013-03-12 22:09:00,52.6,31.9,29.99,NW,310,5.0,7.0,45,0.00,,---,0.86,VWS V14.01,2013-03-13 02:09:00,
2013-03-12 22:14:00,52.7,32.5,29.99,NNW,348,2.0,8.0,46,0.00,,---,0.86,VWS V14.01,2013-03-13 02:14:00,
2013-03-12 22:19:00,52.6,32.4,29.99,North,360,4.0,9.0,46,0.00,,---,0.86,VWS V14.01,2013-03-13 02:19:00,
2013-03-12 22:24:00,52.3,32.7,29.99,NNW,333,2.0,9.0,47,0.00,,---,0.86,VWS V14.01,2013-03-13 02:24:00,
2013-03-12 22:29:00,52.2,33.1,30.00,North,355,3.0,9.0,48,0.00,,---,0.86,VWS V14.01,2013-03-13 02:29:00,
2013-03-12 22:34:00,51.9,32.8,30.00,North,350,4.0,7.0,48,0.00,,---,0.86,VWS V14.01,2013-03-13 02:34:00,
2013-03-12 22:39:00,51.8,32.8,30.00,NNW,342,2.0,7.0,48,0.00,,---,0.86,VWS V14.01,2013-03-13 02:39:00,
2013-03-12 22:45:00,51.4,32.9,30.00,NW,323,6.0,7.0,49,0.00,,---,0.86,VWS V14.01,2013-03-13 02:45:00,
2013-03-12 22:50:00,51.1,33.1,30.00,North,360,4.0,7.0,50,0.00,,---,0.86,VWS V14.01,2013-03-13 02:50:00,
2013-03-12 22:55:00,50.9,33.4,30.00,NW,308,6.0,7.0,51,0.00,,---,0.86,VWS V14.01,2013-03-13 02:55:00,
2013-03-12 23:00:00,50.6,33.2,30.01,NW,323,3.0,7.0,51,0.00,,---,0.86,VWS V14.01,2013-03-13 03:00:00,
2013-03-12 23:05:00,50.4,33.5,30.01,NW,325,4.0,6.0,52,0.00,,---,0.86,VWS V14.01,2013-03-13 03:05:00,
2013-03-12 23:10:00,50.3,33.8,30.01,NNW,329,1.0,6.0,53,0.00,,---,0.86,VWS V14.01,2013-03-13 03:10:00,
2013-03-12 23:15:00,49.9,33.9,30.01,NW,325,1.0,6.0,54,0.00,,---,0.86,VWS V14.01,2013-03-13 03:15:00,
2013-03-12 23:21:00,49.7,34.2,30.01,NNE,16,3.0,7.0,55,0.00,,---,0.86,VWS V14.01,2013-03-13 03:21:00,
2013-03-12 23:26:00,49.5,34.0,30.01,North,355,3.0,7.0,55,0.00,,---,0.86,VWS V14.01,2013-03-13 03:26:00,
2013-03-12 23:32:00,49.3,34.3,30.02,NW,318,4.0,5.0,56,0.00,,---,0.86,VWS V14.01,2013-03-13 03:32:00,
2013-03-12 23:37:00,49.4,34.4,30.02,NNW,338,5.0,8.0,56,0.00,,---,0.86,VWS V14.01,2013-03-13 03:37:00,
2013-03-12 23:42:00,49.2,34.2,30.02,NNW,328,4.0,8.0,56,0.00,,---,0.86,VWS V14.01,2013-03-13 03:42:00,
2013-03-12 23:47:00,48.8,33.8,30.02,NNW,342,4.0,4.0,56,0.00,,---,0.86,VWS V14.01,2013-03-13 03:47:00,
2013-03-12 23:52:00,48.6,34.1,30.03,NNW,331,3.0,6.0,57,0.00,,---,0.86,VWS V14.01,2013-03-13 03:52:00,
2013-03-12 23:58:00,48.4,33.9,30.03,NNW,335,2.0,7.0,57,0.00,,---,0.86,VWS V14.01,2013-03-13 03:58:00,